Weather History for Gunnison, CO

Change the Weather History Date:

Sunday, September 30, 2012

  Actual Average Record
Temperature  
Mean Temperature 50 °F -  
Max Temperature 66 °F 62 °F 78 °F (2010)
Min Temperature 33 °F 29 °F 19 °F (1999)
Degree Days  
Heating Degree Days 16    
Moisture  
Dew Point 28 °F    
Average Humidity 48    
Maximum Humidity 75    
Minimum Humidity 19    
Precipitation  
Precipitation 0.00 in - - ()
Sea Level Pressure  
Sea Level Pressure 30.37 in    
Wind  
Wind Speed 2 mph (NW)    
Max Wind Speed 13 mph    
Max Gust Speed 16 mph    
Visibility 10 miles    
Events      
Averages and records for this station are not official NWS values.
T = Trace of Precipitation, MM = Missing Value Source: NWS Daily Summary

Daily Weather History Graph

Daily Weather History Graph

Search for Another Location

Airport:

Trip Planner

Search our weather history database for the weather conditions in past years. The results will help you decide how hot, cold, wet, or windy it might be!

Date:

Astronomy

Sep. 30, 2012 Rise Set
Actual Time 7:03 AM MDT 6:51 PM MDT
Civil Twilight 6:36 AM MDT 7:17 PM MDT
Nautical Twilight 6:05 AM MDT 7:48 PM MDT
Astronomical Twilight 5:34 AM MDT 8:19 PM MDT
Moon 6:58 PM MDT (9/30) 7:35 AM MDT (9/30)
Length of Visible Light 12h 40m
Length of Day
11h 48m
Full, 100% of the Moon is Illuminated
Sep 30
Full
Oct 8
Last Quarter
Oct 15
New
Oct 21
First Quarter
Oct 29
Full

Hourly Weather History & Observations

Time (MDT) Temp. Windchill Dew Point Humidity Pressure Visibility Wind Dir Wind Speed Gust Speed Precip Events Conditions
12:15 AM 44.6 °F - 28.4 °F 53% 30.37 in 10.0 mi Calm Calm - N/A   Clear
12:35 AM 44.6 °F - 28.4 °F 53% 30.37 in 10.0 mi Calm Calm - N/A   Clear
12:55 AM 42.8 °F - 30.2 °F 61% 30.37 in 10.0 mi Calm Calm - N/A   Partly Cloudy
1:15 AM 44.6 °F 42.2 °F 28.4 °F 53% 30.37 in 10.0 mi WNW 4.6 mph - N/A   Clear
1:35 AM 42.8 °F - 30.2 °F 61% 30.38 in 10.0 mi Calm Calm - N/A   Mostly Cloudy
2:15 AM 41.0 °F - 30.2 °F 65% 30.38 in 10.0 mi Calm Calm - N/A   Clear
2:35 AM 39.2 °F - 30.2 °F 70% 30.38 in 10.0 mi Calm Calm - N/A   Clear
2:55 AM 39.2 °F 35.9 °F 30.2 °F 70% 30.38 in 10.0 mi NNW 4.6 mph - N/A   Clear
3:15 AM 39.2 °F - 30.2 °F 70% 30.38 in 10.0 mi Calm Calm - N/A   Clear
3:35 AM 39.2 °F - 28.4 °F 65% 30.38 in 10.0 mi Calm Calm - N/A   Scattered Clouds
3:55 AM 39.2 °F - 28.4 °F 65% 30.38 in 10.0 mi North - - N/A   Mostly Cloudy
4:15 AM 37.4 °F - 28.4 °F 70% 30.39 in 10.0 mi Calm Calm - N/A   Scattered Clouds
4:35 AM 37.4 °F - 28.4 °F 70% 30.39 in 10.0 mi Calm Calm - N/A   Scattered Clouds
4:55 AM 37.4 °F - 28.4 °F 70% 30.39 in 10.0 mi Calm Calm - N/A   Clear
5:15 AM 35.6 °F - 26.6 °F 70% 30.39 in 10.0 mi Calm Calm - N/A   Clear
5:35 AM 35.6 °F 32.8 °F 28.4 °F 75% 30.39 in 10.0 mi North 3.5 mph - N/A   Clear
5:55 AM 35.6 °F 32.8 °F 26.6 °F 70% 30.40 in 10.0 mi North 3.5 mph - N/A   Clear
6:15 AM 35.6 °F 32.8 °F 26.6 °F 70% 30.40 in 10.0 mi NNW 3.5 mph - N/A   Clear
6:35 AM 33.8 °F 30.8 °F 26.6 °F 75% 30.40 in 10.0 mi NNE 3.5 mph - N/A   Clear
6:55 AM 33.8 °F 29.6 °F 26.6 °F 75% 30.41 in 10.0 mi North 4.6 mph - N/A   Clear
7:15 AM 33.8 °F - 26.6 °F 75% 30.41 in 10.0 mi Calm Calm - N/A   Clear
7:35 AM 33.8 °F 29.6 °F 26.6 °F 75% 30.41 in 10.0 mi North 4.6 mph - N/A   Clear
8:15 AM 35.6 °F - 28.4 °F 75% 30.43 in 10.0 mi Calm Calm - N/A   Clear
8:35 AM 37.4 °F - 28.4 °F 70% 30.44 in 10.0 mi Calm Calm - N/A   Clear
8:55 AM 39.2 °F - 30.2 °F 70% 30.44 in 10.0 mi Calm Calm - N/A   Clear
9:15 AM 42.8 °F - 30.2 °F 61% 30.43 in 10.0 mi Calm Calm - N/A   Clear
9:35 AM 44.6 °F - 32.0 °F 61% 30.43 in 10.0 mi Calm Calm - N/A   Clear
9:55 AM 48.2 °F - 33.8 °F 58% 30.43 in 10.0 mi Calm Calm - N/A   Clear
10:15 AM 48.2 °F - 32.0 °F 54% 30.43 in 10.0 mi Calm Calm - N/A   Clear
10:35 AM 51.8 °F - 32.0 °F 47% 30.42 in 10.0 mi Calm Calm - N/A   Clear
10:55 AM 53.6 °F - 32.0 °F 44% 30.41 in 10.0 mi Calm Calm - N/A   Clear
11:35 AM 55.4 °F - 33.8 °F 44% 30.40 in 10.0 mi WSW 5.8 mph - N/A   Clear
11:55 AM 57.2 °F - 32.0 °F 38% 30.39 in 10.0 mi SW 5.8 mph - N/A   Partly Cloudy
12:35 PM 62.6 °F - 28.4 °F 27% 30.37 in 10.0 mi SE 6.9 mph - N/A   Partly Cloudy
12:55 PM 62.6 °F - 28.4 °F 27% 30.36 in 10.0 mi SSW 5.8 mph - N/A   Scattered Clouds
1:35 PM 64.4 °F - 28.4 °F 26% 30.35 in 10.0 mi South 4.6 mph - N/A   Overcast
2:15 PM 64.4 °F - 26.6 °F 24% 30.33 in 10.0 mi SSW 10.4 mph - N/A   Mostly Cloudy
2:35 PM 66.2 °F - 28.4 °F 24% 30.33 in 10.0 mi WSW 4.6 mph - N/A   Overcast
2:55 PM 66.2 °F - 26.6 °F 23% 30.32 in 10.0 mi NW 8.1 mph 16.1 mph N/A   Mostly Cloudy
3:15 PM 66.2 °F - 26.6 °F 23% 30.32 in 10.0 mi NNW 11.5 mph - N/A   Scattered Clouds
3:35 PM 66.2 °F - 24.8 °F 21% 30.32 in 10.0 mi NNW 6.9 mph - N/A   Partly Cloudy
3:55 PM 66.2 °F - 24.8 °F 21% 30.31 in 10.0 mi NNW 5.8 mph - N/A   Partly Cloudy
4:15 PM 66.2 °F - 23.0 °F 19% 30.31 in 10.0 mi NW 9.2 mph - N/A   Partly Cloudy
4:35 PM 64.4 °F - 23.0 °F 21% 30.31 in 10.0 mi NW 5.8 mph - N/A   Partly Cloudy
4:55 PM 64.4 °F - 24.8 °F 22% 30.31 in 10.0 mi North 6.9 mph - N/A   Scattered Clouds
5:15 PM 64.4 °F - 24.8 °F 22% 30.31 in 10.0 mi North 8.1 mph - N/A   Scattered Clouds
5:35 PM 64.4 °F - 26.6 °F 24% 30.31 in 10.0 mi NNW 11.5 mph - N/A   Clear
6:15 PM 64.4 °F - 26.6 °F 24% 30.31 in 10.0 mi NW 10.4 mph - N/A   Clear
6:35 PM 62.6 °F - 26.6 °F 26% 30.32 in 10.0 mi NW 12.7 mph - N/A   Clear
6:55 PM 62.6 °F - 26.6 °F 26% 30.33 in 10.0 mi WNW 10.4 mph - N/A   Clear
7:15 PM 60.8 °F - 24.8 °F 25% 30.33 in 10.0 mi WNW 11.5 mph - N/A   Clear
7:35 PM 60.8 °F - 24.8 °F 25% 30.34 in 10.0 mi NW 9.2 mph - N/A   Clear
8:15 PM 55.4 °F - 26.6 °F 33% 30.36 in 10.0 mi NNW 4.6 mph - N/A   Clear
8:35 PM 53.6 °F - 26.6 °F 35% 30.36 in 10.0 mi Calm Calm - N/A   Clear
9:15 PM 53.6 °F - 26.6 °F 35% 30.38 in 10.0 mi North 3.5 mph - N/A   Clear
9:35 PM 51.8 °F - 26.6 °F 38% 30.38 in 10.0 mi Calm Calm - N/A   Clear
9:55 PM 50.0 °F - 28.4 °F 43% 30.39 in 10.0 mi Calm Calm - N/A   Clear
10:15 PM 48.2 °F - 28.4 °F 46% 30.39 in 10.0 mi Calm Calm - N/A   Clear
10:35 PM 46.4 °F 44.3 °F 28.4 °F 50% 30.40 in 10.0 mi East 4.6 mph - N/A   Clear
10:55 PM 48.2 °F - 26.6 °F 43% 30.40 in 10.0 mi Calm Calm - N/A   Clear
11:35 PM 44.6 °F - 28.4 °F 53% 30.40 in 10.0 mi Calm Calm - N/A   Clear
11:55 PM 46.4 °F - 26.6 °F 46% 30.40 in 10.0 mi Calm Calm - N/A   Clear